Regional Weather Roundup
Issued by NWS

Home | Current Version | Previous Version | Graphics & Text | Print | Product List | Glossary On
Versions: 1 2 3 4 5 6 7 8 9 10 11 12 13 14 15 16 17 18 19 20 21 22 23 24 25 26 27 28 29 30 31 32 33 34 35 36 37 38 39 40 41 42 43 44 45 46 47 48 49 50
927
ASUS43 KLOT 030303
RWRIL

ILLINOIS REGIONAL WEATHER ROUNDUP
NATIONAL WEATHER SERVICE CHICAGO/ROMEOVILLE IL
900 PM CST FRI DEC 02 2016

NOTE: "FAIR" INDICATES FEW OR NO CLOUDS BELOW 12,000 FEET WITH NO
SIGNIFICANT WEATHER AND/OR OBSTRUCTIONS TO VISIBILITY.

* THESE STATIONS ARE NOT UNDER NWS QUALITY CONTROL. THEY ALSO MAY NOT
  REPORT WEATHER SUCH AS PRECIPITATION OR FOG.

ILZ001-002-007-009-015-016-024-030400-
NORTHWEST ILLINOIS

CITY           SKY/WX    TMP DP  RH WIND       PRES   REMARKS
MOLINE         CLOUDY    36  25  64 NW8       30.34R WCI  30
STERLING*      CLOUDY    34  27  75 W7        30.34R WCI  28
$$

ILZ003-004-008-010-011-017-018-030400-
NORTH CENTRAL ILLINOIS

CITY           SKY/WX    TMP DP  RH WIND       PRES   REMARKS
ROCKFORD       CLOUDY    33  24  69 W9        30.34R WCI  25
FREEPORT*      CLOUDY    32  24  72 NW6       30.34R WCI  26
ROCHELLE*      CLOUDY    33  25  74 NW7       30.33R WCI  26
$$

ILZ005-006-012>014-019>023-030400-
NORTHEAST ILLINOIS

CITY           SKY/WX    TMP DP  RH WIND       PRES   REMARKS
CHICAGO-OHARE  CLOUDY    35  24  64 NW7       30.30R WCI  29
CHICAGO-MIDWAY CLOUDY    37  24  59 W9        30.30S WCI  30
AURORA         CLOUDY    34  26  72 NW5       30.32R WCI  30
LANSING*       CLOUDY    36  27  70 W7        30.31R WCI  30
WAUKEGAN       CLOUDY    34  23  64 W3        30.30R
DUPAGE AIRPORT CLOUDY    34  24  67 W7        30.30R WCI  28
KANKAKEE*      CLOUDY    37  32  81 W3        30.33R
WHEELING       CLOUDY    34  24  67 NW7       30.32R WCI  28
MORRIS*        CLOUDY    35  29  78 CALM      30.32R
NORTHERLY ISL    N/A     37  25  62 NW6         N/A  WCI  32
$$

LMZ740>746-030400-
SOUTHERN LAKE MICHIGAN

STATION/POSITION SKY/WX   TEMP    WIND        PRES    VSBY  WAVE
                          AIR SEA DIR/SP/G                  HT/PER
                          (F)     (DEG/KT/KT) (MB)    (MI)  (FT/S)
SOUTHERN BUOY              37 49  300/ 10/ 14 1025.1          2/ 5
HARRISON CRIB              38     330/ 10/ 12   N/A
BURNHAM HARBOR             37     290/  5/  8   N/A
CALUMET HARBOR             37     260/  6/ 10 1025.3R
BURNS HARBOR               40     280/ 10/ 17 1026.1R
MICHIGAN CITY              38     320/  8/ 11   N/A
$$

ILZ025>027-034>036-040-047-049-050-058-095>099-030400-
WEST-CENTRAL ILLINOIS

CITY           SKY/WX    TMP DP  RH WIND       PRES   REMARKS
QUINCY         MOCLDY    37  31  78 NE5       30.33S WCI  33
GALESBURG*     CLOUDY    35  30  81 CALM      30.35R
MACOMB*        CLOUDY    37  32  81 N5        30.37R WCI  34
JACKSONVILLE*  MOCLDY    36  31  81 N5        30.33F WCI  32
PITTSFIELD*    PTCLDY    30  28  92 CALM      30.34S
$$

ILZ028>032-037-038-041>044-048-051>054-059>061-030400-
CENTRAL ILLINOIS

CITY           SKY/WX    TMP DP  RH WIND       PRES   REMARKS
BLOOMINGTON    CLOUDY    38  29  70 NW10      30.34R WCI  31
DECATUR        CLOUDY    41  32  70 W3        30.34R
PEORIA         CLOUDY    38  28  67 NW6       30.36R WCI  33
LACON*         CLOUDY    35  28  74 NW8       30.35R WCI  29
LINCOLN*       CLOUDY    40  33  76 NW3       30.35R
SPRINGFIELD    CLOUDY    41  34  76 NW5       30.35R
TAYLORVILLE    CLOUDY    38  33  81 W3        30.34R
$$

ILZ033-039-045-046-055>057-062-063-030400-
EAST-CENTRAL ILLINOIS

CITY           SKY/WX    TMP DP  RH WIND       PRES   REMARKS
CHAMPAIGN      CLOUDY    39  33  79 NW5       30.33R
RANTOUL*       CLOUDY    40  34  81 NW6       30.33R
MATTOON        CLOUDY    39  31  72 W3        30.33R
PARIS*         CLOUDY    38  35  89 SW5       30.34R WCI  34
$$

ILZ079-100>102-030400-
SOUTHWEST ILLINOIS

CITY           SKY/WX    TMP DP  RH WIND       PRES   REMARKS
ALTON          PTCLDY    32  30  93 CALM      30.34F
BELLEVILLE     PTCLDY    32  32  99 CALM      30.34S
CAHOKIA*       CLOUDY    33  28  81 CALM      30.35R
SPARTA*        PTCLDY    35  30  81 E3        30.35S
$$

ILZ064>066-069>071-074>076-080>082-084>086-088>090-092>094-030400-
SOUTH-CENTRAL ILLINOIS

CITY           SKY/WX    TMP DP  RH WIND       PRES   REMARKS
CARBONDALE     CLOUDY    33  30  88 CALM      30.35R
CAIRO*         CLEAR     40  31  70 NE3       30.33S
EFFINGHAM*     CLOUDY    37  36  94 CALM      30.36S
MARION         CLOUDY    34  32  93 CALM      30.36R
SALEM*         PTCLDY    35  32  88 CALM      30.35S
METROPOLIS*    CLEAR     38  31  74 CALM      30.34S
$$

ILZ067-068-072-073-078-083-087-091-030400-
SOUTHEAST ILLINOIS

CITY           SKY/WX    TMP DP  RH WIND       PRES   REMARKS
LAWRENCEVILLE  CLOUDY    40  32  73 NW3       30.35R
FLORA*         MOCLDY    32  30  92 CALM      30.36R
FAIRFIELD*     PTCLDY    32  30  94 CALM      30.34S
HARRISBURG*    CLOUDY    37  32  81 N5        30.36R WCI  33
ROBINSON*      CLOUDY    38  33  82 W3        30.36S
CARMI*         CLOUDY    32  30  92 N3        30.35S
$$

ABBREVIATIONS USED IN REMARKS
   TC - TEMPERATURE IN CELSIUS
  WCI - WIND CHILL INDEX
   HX - HEAT INDEX
  VSB - VISIBILITY
$$





USA.gov is the U.S. government's official web portal to all federal, state and local government web resources and services.